Torna al catalogo

GLOBALSTAR M087

AttivoComunicazioniLEO
NORAD 52888·PAYLOAD·🇺🇸 United States

Lanciato Jun 19, 2022 da Cape Canaveral Space Force Station

Loading…

Prossimi Passaggi (prossime 24 ore)

TLE

AggiornatoSource: Space-Track

Epoca: Sep 14, 2026, 02:04 UTC

1 52888U 22064A   26257.08627397 -.00000069  00000-0  19680-3 0  9992
2 52888  51.9986 151.8058 0000714  90.4369 269.6580 12.62262941202366

Traccia GLOBALSTAR M087 in tempo reale con AllMySat

Download on the App Store